{"data":{"norad_id":51125,"epoch":"2026-05-25T04:35:58.350048Z","epoch_age_seconds":59247,"freshness":"FRESH","line1":"1 51125U 22005X   26145.19164757 -.00000177  00000+0  69390-5 0  9998","line2":"2 51125  53.2130 315.6978 0001201  90.6879 269.4251 15.08835591240271","mean_motion":15.08835591,"eccentricity":0.0001201,"inclination_deg":53.213,"raan_deg":315.6978,"arg_perigee_deg":90.6879,"mean_anomaly_deg":269.4251,"bstar":6.939e-6,"rev_number":24027,"period_min":95.437833557838,"perigee_km":538.92602649282,"apogee_km":540.58770459932,"semimajor_km":6917.8938655461,"source":"CELESTRAK","updated_at":"2026-05-25T13:38:16.910661Z"}}